This demonstration page uses our WeatherBlox Daily Observations layout. Learn more.

Hourly Observations for October 25, 2016

Temp ( °F °C ) Dew Point ( °F °C ) Humidity (%) Winds ( mph kmh ) Pressure ( in mb ) Visibility ( mi km ) Precip ( " mm )
12:15 am 00:15 Clear 51 10.3 44 6.7 79 79 SE 8 13 30.15 1021 10 16.09344 0 0
12:35 am 00:35 Clear 50 10.2 44 6.6 79 79 SE 6 9 30.15 1021 10 16.09344 0 0
12:55 am 00:55 Clear 49 9.6 44 6.6 82 82 SE 7 11 30.15 1021 10 16.09344 0 0
1:15 am 01:15 Clear 49 9.2 44 6.5 83 83 SE 7 11 30.15 1021 10 16.09344 0 0
1:35 am 01:35 Clear 49 9.2 44 6.7 85 85 SE 7 11 30.15 1021 10 16.09344 0 0
1:55 am 01:55 Clear 47 8.6 43 6.2 85 85 SE 7 11 30.15 1021 10 16.09344 0 0
2:15 am 02:15 Clear 46 7.9 43 6.1 89 89 SE 7 11 30.15 1021 10 16.09344 0 0
2:35 am 02:35 Clear 46 7.6 43 5.9 89 89 SE 6 9 30.15 1021 10 16.09344 0 0
2:55 am 02:55 Clear 46 8 44 6.4 90 90 SE 8 13 30.15 1021 10 16.09344 0 0
3:15 am 03:15 Clear 47 8.4 44 6.6 89 89 SE 8 13 30.12 1020 10 16.09344 0 0
3:35 am 03:35 Clear 47 8.4 45 7 91 91 SE 7 11 30.12 1020 10 16.09344 0 0
3:55 am 03:55 Clear 47 8.5 45 7.1 91 91 SE 7 11 30.12 1020 10 16.09344 0 0
4:15 am 04:15 Clear 48 9 46 7.7 92 92 SE 8 13 30.12 1020 10 16.09344 0 0
4:35 am 04:35 Clear 49 9.5 47 8.2 92 92 SE 9 15 30.09 1019 10 16.09344 0 0
4:55 am 04:55 Clear 49 9.5 47 8.3 92 92 SE 10 17 30.09 1019 10 16.09344 0 0
5:15 am 05:15 Clear 50 9.8 47 8.6 92 92 SE 9 15 30.06 1018 10 16.09344 0 0
5:35 am 05:35 Clear 50 10 48 8.9 93 93 SE 9 15 30.06 1018 10 16.09344 0 0
5:55 am 05:55 Clear 50 10 48 9 94 94 SE 9 15 30.06 1018 10 16.09344 0 0
6:15 am 06:15 Clear 50 9.8 48 8.8 94 94 SSE 8 13 30.06 1018 10 16.09344 0 0
6:35 am 06:35 Clear 49 9.7 48 8.8 94 94 SSE 7 11 30.09 1019 10 16.09344 0 0
6:55 am 06:55 Clear 49 9.5 47 8.5 94 94 SE 6 9 30.09 1019 10 16.09344 0 0
7:15 am 07:15 Clear 49 9.4 47 8.6 95 95 SE 7 11 30.06 1018 10 16.09344 0 0
7:35 am 07:35 Clear 47 8.6 46 7.9 95 95 E 3 6 30.06 1018 7 11.265408 0 0
7:55 am 07:55 Clear with Mist and Fog 46 7.5 44 6.8 95 95 ESE 7 11 30.06 1018 5 8.04672 0 0
8:15 am 08:15 Sunny with Mist and Fog 46 7.7 45 7.1 96 96 ESE 7 11 30.06 1018 5 8.04672 0 0
8:35 am 08:35 Sunny with Mist and Fog 47 8.1 45 7.4 95 95 SE 7 11 30.06 1018 5 8.04672 0 0
8:55 am 08:55 Partly Cloudy with Mist and Fog 48 8.8 47 8.2 96 96 ESE 8 13 30.06 1018 5 8.04672 0 0
9:15 am 09:15 Mostly Cloudy with Mist and Fog 50 9.9 49 9.4 97 97 SE 8 13 30.03 1017 5 8.04672 0 0
9:35 am 09:35 Partly Cloudy 52 11.2 51 10.6 96 96 ESE 9 15 30.03 1017 7 11.265408 0 0
9:55 am 09:55 Mostly Cloudy 54 12 52 11.1 94 94 SE 10 17 30 1016 7 11.265408 0 0
10:15 am 10:15 Cloudy 55 12.7 53 11.6 93 93 SE 10 17 29.97 1015 10 16.09344 0 0
10:35 am 10:35 Cloudy 56 13.4 54 12 91 91 SE 8 13 29.97 1015 10 16.09344 0 0
10:55 am 10:55 Mostly Cloudy 59 15.2 55 12.9 86 86 SSE 10 17 29.97 1015 10 16.09344 0 0
11:15 am 11:15 Partly Cloudy 61 16.1 55 12.6 80 80 SSE 13 20 29.94 1014 10 16.09344 0 0
11:35 am 11:35 Sunny 63 17 55 12.6 75 75 SSE 14 22 29.91 1013 10 16.09344 0 0
11:55 am 11:55 Sunny 65 18.1 55 12.7 71 71 SSE 13 20 29.91 1013 10 16.09344 0 0
12:15 pm 12:15 Partly Cloudy 66 18.8 55 12.7 68 68 S 13 20 29.91 1013 10 16.09344 0 0
12:35 pm 12:35 Partly Cloudy 67 19.6 55 12.5 64 64 S 12 19 29.88 1012 10 16.09344 0 0
12:55 pm 12:55 Sunny 68 19.8 55 12.5 63 63 S 13 20 29.88 1012 10 16.09344 0 0
1:15 pm 13:15 Sunny 67 19.5 54 12.1 62 62 S 13 20 29.88 1012 10 16.09344 0 0
1:35 pm 13:35 Sunny 69 20.4 54 12 59 59 SSW 12 19 29.85 1011 10 16.09344 0 0
1:55 pm 13:55 Sunny 72 22.3 54 12 52 52 SSW 13 20 29.85 1011 10 16.09344 0 0
2:15 pm 14:15 Sunny 74 23.1 54 12.2 50 50 S 12 19 29.83 1010 10 16.09344 0 0
2:35 pm 14:35 Sunny 73 23 54 12.4 51 51 SSW 9 15 29.8 1009 10 16.09344 0 0
2:55 pm 14:55 Sunny 72 22.4 55 12.5 54 54 SSW 6 9 29.8 1009 10 16.09344 0 0
3:15 pm 15:15 Sunny 74 23.2 55 12.5 51 51 W 7 11 29.8 1009 10 16.09344 0 0
3:35 pm 15:35 Sunny 72 22.2 55 12.5 54 54 WNW 5 7 29.8 1009 10 16.09344 0 0
3:55 pm 15:55 Sunny 73 22.5 55 12.5 53 53 WNW 8 13 29.8 1009 10 16.09344 0 0
4:15 pm 16:15 Sunny 73 22.5 54 12.1 52 52 NW 9 15 29.8 1009 10 16.09344 0 0
4:35 pm 16:35 Sunny 69 20.5 53 11.6 57 57 NW 12 19 29.83 1010 10 16.09344 0 0
4:55 pm 16:55 Sunny 68 20.1 53 11.8 59 59 WNW 9 15 29.83 1010 10 16.09344 0 0
5:15 pm 17:15 Sunny 68 20.1 53 11.8 59 59 NW 10 17 29.83 1010 10 16.09344 0 0
5:35 pm 17:35 Sunny 67 19.3 53 11.6 61 61 NW 12 19 29.83 1010 10 16.09344 0 0
5:55 pm 17:55 Sunny 66 19 53 11.6 62 62 NW 10 17 29.83 1010 10 16.09344 0 0
6:15 pm 18:15 Sunny 65 18.5 53 11.6 64 64 NW 10 17 29.85 1011 10 16.09344 0 0
6:35 pm 18:35 Partly Cloudy 64 18 53 11.5 66 66 WNW 12 19 29.88 1012 10 16.09344 0 0
6:55 pm 18:55 Clear 64 17.8 53 11.5 67 67 WNW 8 13 29.88 1012 10 16.09344 0 0
7:15 pm 19:15 Clear 64 17.5 53 11.4 68 68 NW 8 13 29.88 1012 10 16.09344 0 0
7:35 pm 19:35 Clear 62 16.5 53 11.5 72 72 NW 7 11 29.88 1012 10 16.09344 0 0
7:55 pm 19:55 Partly Cloudy 60 15.8 52 11.2 74 74 WNW 7 11 29.88 1012 10 16.09344 0 0
8:15 pm 20:15 Cloudy 60 15.5 52 11.1 75 75 WNW 12 19 29.94 1014 10 16.09344 0 0
8:35 pm 20:35 Cloudy with Light Rain 60 15.5 53 11.6 78 78 SSW 5 7 29.88 1012 10 16.09344 0 0
8:55 pm 20:55 Partly Cloudy 59 15.1 53 11.5 79 79 NW 6 9 29.91 1013 10 16.09344 0 0
9:15 pm 21:15 Clear 58 14.7 52 11.3 80 80 NW 8 13 29.91 1013 10 16.09344 0 0
9:35 pm 21:35 Partly Cloudy 58 14.5 52 11.2 81 81 NNW 5 7 29.91 1013 10 16.09344 0 0
9:55 pm 21:55 Clear 58 14.6 52 11 79 79 W 9 15 29.94 1014 10 16.09344 0 0
10:15 pm 22:15 Clear 58 14.4 51 10.6 78 78 W 6 9 29.94 1014 10 16.09344 0 0
10:35 pm 22:35 Clear 56 13.4 51 10.3 82 82 Calm 29.94 1014 10 16.09344 0 0
10:55 pm 22:55 Clear 55 12.8 49 9.5 81 81 S 8 13 29.94 1014 10 16.09344 0 0
11:15 pm 23:15 Clear 55 12.6 50 9.9 84 84 WSW 7 11 29.97 1015 10 16.09344 0 0
11:35 pm 23:35 Clear 55 13 50 10.1 83 83 WSW 7 11 29.94 1014 10 16.09344 0 0
11:55 pm 23:55 Clear 55 12.5 50 10 85 85 W 9 15 29.94 1014 10 16.09344 0 0

Powered by AerisWeather